User: anonymous   Login
Location: Allonne
(49.4086°N, 2.1143°E)
Time: 23:29:10
(UTC+00:00)
Language:

CUTE 1.7 + AOD 2 - Orbit

View from above orbital plane
View from above orbital plane
View from above satellite
View from above satellite

Ground track
Ground track

The orbit data is extracted from the following two-line orbital elements,

1 32785U 08021C   23335.47389357  .00007535  00000-0  70986-3 0  9991
2 32785  97.7307 298.2337 0009722 269.0219  90.9887 14.94069608845851
Epoch (UTC): 01 December 2023 11:22:24
Eccentricity: 0.0009722
inclination: 97.7307°
perigee height: 578 km
apogee height: 592 km
right ascension of ascending node: 298.2337°
argument of perigee: 269.0219°
revolutions per day: 14.94069608
mean anomaly at epoch: 90.9887°
orbit number at epoch: 84585

The dashed part of the orbit path shows where the satellite is in the earth's shadow,  

DLR